Time,TemperatureF,DewpointF,PressureIn,WindDirection,WindDirectionDegrees,WindSpeedMPH,WindSpeedGustMPH,Humidity,HourlyPrecipIn,Conditions,Clouds,dailyrainin,SoftwareType,DateUTC
2013-06-15 00:08:00,69.2,61.0,29.95,SE,145,0.0,3.0,74,0.00,,,0.00,weatherlink.com 1.10,2013-06-15 05:08:00,
2013-06-15 00:23:00,69.1,61.0,29.97,ESE,117,0.0,1.0,74,0.00,,,0.00,weatherlink.com 1.10,2013-06-15 05:23:00,
2013-06-15 00:38:00,68.5,61.0,29.97,West,269,0.0,1.0,76,0.00,,,0.00,weatherlink.com 1.10,2013-06-15 05:38:00,
2013-06-15 00:53:00,68.1,60.0,29.95,SE,132,1.0,3.0,75,0.00,,,0.00,weatherlink.com 1.10,2013-06-15 05:53:00,
2013-06-15 01:08:00,68.5,60.0,29.93,ESE,103,2.0,4.0,75,0.00,,,0.00,weatherlink.com 1.10,2013-06-15 06:08:00,
2013-06-15 01:23:00,69.3,60.0,29.93,North,355,0.0,6.0,73,0.00,,,0.00,weatherlink.com 1.10,2013-06-15 06:23:00,
2013-06-15 01:38:00,69.5,61.0,29.93,South,170,0.0,6.0,74,0.00,,,0.00,weatherlink.com 1.10,2013-06-15 06:38:00,
2013-06-15 01:53:00,69.3,61.0,29.94,WSW,252,2.0,3.0,74,0.00,,,0.00,weatherlink.com 1.10,2013-06-15 06:53:00,
2013-06-15 02:08:00,69.1,61.0,29.95,SSW,210,0.0,3.0,75,0.00,,,0.00,weatherlink.com 1.10,2013-06-15 07:08:00,
2013-06-15 02:23:00,68.7,61.0,29.95,SSW,203,0.0,1.0,77,0.00,,,0.00,weatherlink.com 1.10,2013-06-15 07:23:00,
2013-06-15 02:38:00,68.2,61.0,29.96,SW,233,0.0,1.0,78,0.00,,,0.00,weatherlink.com 1.10,2013-06-15 07:38:00,
2013-06-15 02:53:00,68.0,62.0,29.95,South,188,0.0,1.0,80,0.00,,,0.00,weatherlink.com 1.10,2013-06-15 07:53:00,
2013-06-15 03:08:00,67.5,62.0,29.94,SE,133,2.0,2.0,82,0.00,,,0.00,weatherlink.com 1.10,2013-06-15 08:08:00,
2013-06-15 03:23:00,67.4,62.0,29.93,SW,223,0.0,3.0,82,0.00,,,0.00,weatherlink.com 1.10,2013-06-15 08:23:00,
2013-06-15 03:38:00,68.2,62.0,29.93,South,183,0.0,5.0,81,0.00,,,0.00,weatherlink.com 1.10,2013-06-15 08:38:00,
2013-06-15 03:53:00,68.6,62.0,29.93,SE,143,0.0,4.0,80,0.00,,,0.00,weatherlink.com 1.10,2013-06-15 08:53:00,
2013-06-15 04:08:00,68.6,63.0,29.92,ESE,115,0.0,6.0,81,0.00,,,0.00,weatherlink.com 1.10,2013-06-15 09:08:00,
2013-06-15 04:23:00,68.0,63.0,29.93,ESE,113,0.0,4.0,83,0.00,,,0.00,weatherlink.com 1.10,2013-06-15 09:23:00,
2013-06-15 04:38:00,67.7,63.0,29.91,ESE,108,1.0,4.0,84,0.00,,,0.00,weatherlink.com 1.10,2013-06-15 09:38:00,
2013-06-15 04:53:00,67.0,63.0,29.91,ENE,75,2.0,3.0,87,0.00,,,0.00,weatherlink.com 1.10,2013-06-15 09:53:00,
2013-06-15 05:08:00,66.7,63.0,29.90,ENE,76,2.0,8.0,87,0.00,,,0.00,weatherlink.com 1.10,2013-06-15 10:08:00,
2013-06-15 05:23:00,66.1,63.0,29.90,East,101,5.0,10.0,89,0.00,,,0.00,weatherlink.com 1.10,2013-06-15 10:23:00,
2013-06-15 05:38:00,65.7,62.0,29.90,ENE,63,7.0,11.0,89,0.00,,,0.00,weatherlink.com 1.10,2013-06-15 10:38:00,
2013-06-15 05:53:00,65.3,62.0,29.90,NE,56,5.0,9.0,89,0.00,,,0.00,weatherlink.com 1.10,2013-06-15 10:53:00,
2013-06-15 06:08:00,65.2,62.0,29.90,ENE,58,5.0,9.0,89,0.00,,,0.00,weatherlink.com 1.10,2013-06-15 11:08:00,
2013-06-15 06:23:00,65.2,62.0,29.89,NE,49,4.0,9.0,89,0.00,,,0.00,weatherlink.com 1.10,2013-06-15 11:23:00,
2013-06-15 06:38:00,65.0,62.0,29.89,NNE,15,1.0,9.0,89,0.00,,,0.00,weatherlink.com 1.10,2013-06-15 11:38:00,
2013-06-15 06:53:00,64.9,62.0,29.91,SSW,203,0.0,3.0,90,0.00,,,0.00,weatherlink.com 1.10,2013-06-15 11:53:00,
2013-06-15 07:08:00,64.7,62.0,29.91,SSE,167,2.0,2.0,91,0.00,,,0.00,weatherlink.com 1.10,2013-06-15 12:08:00,
2013-06-15 07:23:00,64.5,62.0,29.91,SSE,159,0.0,6.0,91,0.00,,,0.00,weatherlink.com 1.10,2013-06-15 12:23:00,
2013-06-15 07:38:00,64.2,62.0,29.91,ENE,66,2.0,4.0,93,0.00,,,0.00,weatherlink.com 1.10,2013-06-15 12:38:00,
2013-06-15 07:53:00,63.9,62.0,29.91,ESE,122,2.0,4.0,94,0.00,,,0.00,weatherlink.com 1.10,2013-06-15 12:53:00,
2013-06-15 08:08:00,63.9,62.0,29.91,East,96,0.0,3.0,94,0.00,,,0.00,weatherlink.com 1.10,2013-06-15 13:08:00,
2013-06-15 08:23:00,64.1,63.0,29.91,SSE,151,0.0,4.0,95,0.02,,,0.02,weatherlink.com 1.10,2013-06-15 13:23:00,
2013-06-15 08:38:00,64.3,63.0,29.91,SE,132,0.0,3.0,95,0.02,,,0.02,weatherlink.com 1.10,2013-06-15 13:38:00,
2013-06-15 08:53:00,64.8,64.0,29.91,ESE,113,1.0,3.0,96,0.02,,,0.02,weatherlink.com 1.10,2013-06-15 13:53:00,
2013-06-15 09:08:00,65.2,64.0,29.91,NNW,348,1.0,3.0,95,0.02,,,0.02,weatherlink.com 1.10,2013-06-15 14:08:00,
2013-06-15 09:23:00,65.6,64.0,29.92,SW,226,1.0,2.0,94,0.00,,,0.02,weatherlink.com 1.10,2013-06-15 14:23:00,
2013-06-15 09:38:00,66.3,65.0,29.92,SW,225,3.0,4.0,94,0.00,,,0.02,weatherlink.com 1.10,2013-06-15 14:38:00,
2013-06-15 09:53:00,67.2,65.0,29.91,SSE,153,2.0,8.0,92,0.00,,,0.02,weatherlink.com 1.10,2013-06-15 14:53:00,
2013-06-15 10:08:00,68.5,66.0,29.91,ESE,103,2.0,6.0,90,0.00,,,0.02,weatherlink.com 1.10,2013-06-15 15:08:00,
2013-06-15 10:23:00,70.1,67.0,29.91,WSW,240,1.0,6.0,89,0.00,,,0.02,weatherlink.com 1.10,2013-06-15 15:23:00,
2013-06-15 10:39:00,70.9,67.0,29.91,SW,228,1.0,5.0,87,0.00,,,0.02,weatherlink.com 1.10,2013-06-15 15:39:00,
2013-06-15 10:54:00,71.9,68.0,29.90,SSW,195,2.0,5.0,86,0.00,,,0.02,weatherlink.com 1.10,2013-06-15 15:54:00,
2013-06-15 11:09:00,73.8,69.0,29.90,ESE,103,3.0,4.0,86,0.00,,,0.02,weatherlink.com 1.10,2013-06-15 16:09:00,
2013-06-15 11:24:00,73.7,69.0,29.90,SE,146,2.0,9.0,84,0.00,,,0.02,weatherlink.com 1.10,2013-06-15 16:24:00,
2013-06-15 11:39:00,74.1,69.0,29.90,SSE,149,1.0,7.0,84,0.00,,,0.02,weatherlink.com 1.10,2013-06-15 16:39:00,
2013-06-15 11:54:00,74.3,69.0,29.89,West,266,4.0,8.0,83,0.00,,,0.02,weatherlink.com 1.10,2013-06-15 16:54:00,
2013-06-15 12:09:00,75.5,70.0,29.89,SW,232,3.0,6.0,84,0.00,,,0.02,weatherlink.com 1.10,2013-06-15 17:09:00,
2013-06-15 12:24:00,76.4,71.0,29.89,SSW,210,2.0,8.0,84,0.00,,,0.02,weatherlink.com 1.10,2013-06-15 17:24:00,
2013-06-15 12:39:00,78.7,72.0,29.89,West,260,3.0,8.0,79,0.00,,,0.02,weatherlink.com 1.10,2013-06-15 17:39:00,
2013-06-15 12:54:00,79.3,72.0,29.89,WSW,238,4.0,11.0,77,0.00,,,0.02,weatherlink.com 1.10,2013-06-15 17:54:00,
2013-06-15 13:09:00,79.2,71.0,29.90,SW,224,6.0,11.0,75,0.00,,,0.02,weatherlink.com 1.10,2013-06-15 18:09:00,
2013-06-15 13:24:00,81.7,71.0,29.89,South,181,2.0,7.0,71,0.00,,,0.02,weatherlink.com 1.10,2013-06-15 18:24:00,
2013-06-15 13:39:00,81.2,70.0,29.89,SW,223,4.0,10.0,68,0.00,,,0.02,weatherlink.com 1.10,2013-06-15 18:39:00,
2013-06-15 13:54:00,80.9,70.0,29.89,WSW,239,3.0,8.0,70,0.00,,,0.02,weatherlink.com 1.10,2013-06-15 18:54:00,
2013-06-15 14:09:00,82.6,71.0,29.88,SW,214,1.0,5.0,67,0.00,,,0.02,weatherlink.com 1.10,2013-06-15 19:09:00,
2013-06-15 14:24:00,84.1,72.0,29.87,WNW,282,3.0,4.0,67,0.00,,,0.02,weatherlink.com 1.10,2013-06-15 19:24:00,
2013-06-15 14:39:00,83.4,71.0,29.88,West,270,4.0,7.0,67,0.00,,,0.02,weatherlink.com 1.10,2013-06-15 19:39:00,
2013-06-15 14:54:00,82.6,72.0,29.87,SW,231,2.0,7.0,70,0.00,,,0.02,weatherlink.com 1.10,2013-06-15 19:54:00,
2013-06-15 15:09:00,82.5,71.0,29.86,SW,219,1.0,2.0,69,0.00,,,0.02,weatherlink.com 1.10,2013-06-15 20:09:00,
2013-06-15 15:24:00,84.0,72.0,29.85,SSW,200,2.0,4.0,67,0.00,,,0.02,weatherlink.com 1.10,2013-06-15 20:24:00,
2013-06-15 15:39:00,85.1,73.0,29.84,SSW,195,1.0,5.0,68,0.00,,,0.02,weatherlink.com 1.10,2013-06-15 20:39:00,
2013-06-15 15:54:00,83.7,72.0,29.83,SW,221,2.0,7.0,68,0.00,,,0.02,weatherlink.com 1.10,2013-06-15 20:54:00,
2013-06-15 16:09:00,82.3,73.0,29.84,SW,231,3.0,8.0,73,0.00,,,0.02,weatherlink.com 1.10,2013-06-15 21:09:00,
2013-06-15 16:24:00,80.7,72.0,29.84,SSW,212,7.0,11.0,74,0.00,,,0.02,weatherlink.com 1.10,2013-06-15 21:24:00,
2013-06-15 16:39:00,79.1,71.0,29.84,SW,225,7.0,16.0,77,0.00,,,0.02,weatherlink.com 1.10,2013-06-15 21:39:00,
2013-06-15 16:54:00,78.7,71.0,29.81,SW,236,5.0,11.0,78,0.00,,,0.02,weatherlink.com 1.10,2013-06-15 21:54:00,
2013-06-15 17:09:00,80.0,72.0,29.77,South,188,4.0,9.0,77,0.00,,,0.02,weatherlink.com 1.10,2013-06-15 22:09:00,
2013-06-15 17:24:00,79.7,72.0,29.77,WSW,243,3.0,12.0,76,0.00,,,0.02,weatherlink.com 1.10,2013-06-15 22:24:00,
2013-06-15 17:39:00,80.7,72.0,29.76,SW,229,5.0,11.0,75,0.00,,,0.02,weatherlink.com 1.10,2013-06-15 22:39:00,
2013-06-15 17:54:00,81.5,73.0,29.76,SSW,198,2.0,9.0,74,0.00,,,0.02,weatherlink.com 1.10,2013-06-15 22:54:00,
2013-06-15 18:09:00,81.2,73.0,29.76,South,184,3.0,10.0,75,0.00,,,0.02,weatherlink.com 1.10,2013-06-15 23:09:00,
2013-06-15 18:24:00,79.9,72.0,29.76,SW,223,6.0,11.0,77,0.00,,,0.02,weatherlink.com 1.10,2013-06-15 23:24:00,
2013-06-15 18:39:00,80.2,72.0,29.76,ESE,108,4.0,12.0,77,0.00,,,0.02,weatherlink.com 1.10,2013-06-15 23:39:00,
2013-06-15 18:54:00,79.4,72.0,29.77,SW,228,5.0,8.0,79,0.00,,,0.02,weatherlink.com 1.10,2013-06-15 23:54:00,
2013-06-15 19:09:00,78.8,72.0,29.79,West,272,2.0,7.0,80,0.00,,,0.02,weatherlink.com 1.10,2013-06-16 00:09:00,
2013-06-15 19:25:00,78.2,72.0,29.81,WSW,257,8.0,9.0,82,0.00,,,0.02,weatherlink.com 1.10,2013-06-16 00:25:00,
2013-06-15 19:40:00,78.0,72.0,29.83,West,260,4.0,8.0,82,0.00,,,0.02,weatherlink.com 1.10,2013-06-16 00:40:00,
2013-06-15 19:55:00,78.0,72.0,29.83,WSW,241,6.0,10.0,82,0.00,,,0.02,weatherlink.com 1.10,2013-06-16 00:55:00,
2013-06-15 20:10:00,78.0,72.0,29.81,SW,224,13.0,16.0,82,0.00,,,0.02,weatherlink.com 1.10,2013-06-16 01:10:00,
2013-06-15 20:25:00,77.8,72.0,29.80,SSW,211,3.0,11.0,82,0.00,,,0.02,weatherlink.com 1.10,2013-06-16 01:25:00,
2013-06-15 20:40:00,77.3,72.0,29.80,West,263,2.0,9.0,84,0.00,,,0.02,weatherlink.com 1.10,2013-06-16 01:40:00,
2013-06-15 20:55:00,76.9,72.0,29.80,SW,226,4.0,9.0,85,0.00,,,0.02,weatherlink.com 1.10,2013-06-16 01:55:00,
2013-06-15 21:10:00,76.5,72.0,29.80,West,264,1.0,6.0,86,0.00,,,0.02,weatherlink.com 1.10,2013-06-16 02:10:00,
2013-06-15 21:25:00,76.1,72.0,29.80,WSW,255,1.0,6.0,88,0.00,,,0.02,weatherlink.com 1.10,2013-06-16 02:25:00,
2013-06-15 21:40:00,75.8,72.0,29.81,SW,223,1.0,4.0,88,0.00,,,0.02,weatherlink.com 1.10,2013-06-16 02:40:00,
2013-06-15 21:55:00,75.4,72.0,29.81,SW,226,2.0,5.0,90,0.00,,,0.02,weatherlink.com 1.10,2013-06-16 02:55:00,
2013-06-15 22:10:00,75.2,73.0,29.82,SW,221,2.0,5.0,91,0.00,,,0.02,weatherlink.com 1.10,2013-06-16 03:10:00,
2013-06-15 22:25:00,75.1,72.0,29.84,SSW,200,2.0,7.0,91,0.00,,,0.02,weatherlink.com 1.10,2013-06-16 03:25:00,
2013-06-15 22:40:00,75.3,72.0,29.84,WSW,243,13.0,13.0,90,0.00,,,0.02,weatherlink.com 1.10,2013-06-16 03:40:00,
2013-06-15 22:55:00,75.9,70.0,29.84,West,267,7.0,14.0,83,0.00,,,0.02,weatherlink.com 1.10,2013-06-16 03:55:00,
2013-06-15 23:10:00,75.6,69.0,29.84,WSW,245,7.0,14.0,79,0.00,,,0.02,weatherlink.com 1.10,2013-06-16 04:10:00,
2013-06-15 23:25:00,74.9,67.0,29.84,SW,226,10.0,22.0,77,0.00,,,0.02,weatherlink.com 1.10,2013-06-16 04:25:00,
2013-06-15 23:40:00,72.8,68.0,29.85,West,264,3.0,27.0,84,0.02,,,0.04,weatherlink.com 1.10,2013-06-16 04:40:00,
2013-06-15 23:55:00,70.9,68.0,29.85,West,269,5.0,14.0,89,0.02,,,0.04,weatherlink.com 1.10,2013-06-16 04:55:00,